星链-30203 (STARLINK-30203 )

导读

STARLINK-30203是美国SpaceX星链卫星互联网项目中的一员,于2023年8月7日发射入轨,属于低轨通信卫星。星链系统通过构建大规模卫星星座,为全球提供高速互联网接入服务,该卫星的入轨进一步扩充了星链星座的覆盖范围与服务容量,延续了SpaceX批量部署星链卫星的节奏。

Basic Information
目录编号:
57498
目录名称:
STARLINK-30203
国际标识:
2023-113D
轨道中心:
EARTH
卫星名称:
星链-30203
卫星全名:
星链-30203 (STARLINK-30203 )
卫星状态:
在轨 (已飞行1131 天)
发射日期:
2023-08-07 UTC
国别 :
美国 (US)
星等 :
--
This satellite is enrolled in the Space Conjunction Data Service (SCDS) and the current flight risk assessment level is: No High Risk
Orbit Information
数据来源 国际轨道数据
星历时间: 2026-09-11T11:54:17+0800
11小时前
查看轨道信息
半长轴: 6861.189km
偏心率: 0.000188
轨道倾角: 43.006°
近地点辐角 269.782°
升交点赤经 48.383°
平近点角 90.282°
近地点: 481.762km
远地点: 484.342km
周期: 94.267分钟
每日圈数: 15.275791
Detailed Information
固有亮度:
5
最大亮度:
0.3
卫星平台:
Starlink v2.0 mini
覆盖范围:
全球
运营商:
太空探索技术公司
运营商所在国:
美国
制造商(研发单位):
太空探索技术公司
制造商所在国:
美国
使用方式:
暂无
Satellite Introduction
星链(Starlink)计划是由太空探索技术公司(SpaceX)提出的一个巨型低轨卫星互联网星座项目,计划在2019年至2024年间在太空搭建由约1.2万颗卫星组成的“星链”网络,其中1584颗将部署在地球上空550千米处的近地轨道,并从2020年开始工作。该卫星仍在工作。
2D Orbit Map
3D Orbit Map
Orbit Altitude Analysis Chart
Orbit Inclination Analysis Chart
Orbit Comprehensive Analysis Chart
View Comprehensive Chart
Conjunction Data List
Event ID Objects TCA Miss Dist (km) Collision Risk Probability Collision Risk Index (CRI) Action
CDM_260910-161405-749805-780923
2026-09-10T
16:14:40+0000
0.216 km
中距离
6.437314E-4 高风险 0.91
CDM_260914-064205-245705-749821
2026-09-14T
06:42:53+0000
0.345 km
远距离
3.11603E-4 高风险 0.85
CDM_260909-080405-749805-780922
2026-09-09T
08:04:30+0000
0.466 km
远距离
1.897778E-4 高风险 0.81
CDM_260913-150605-749806-650121
2026-09-13T
15:06:15+0000
0.470 km
远距离
8.085856E-5 中风险 0.73
CDM_260909-063005-749805-780922
2026-09-09T
06:30:21+0000
0.800 km
远距离
4.292438E-5 中风险 0.68
CDM_260913-124505-749806-650121
2026-09-13T
12:45:01+0000
0.618 km
远距离
3.702906E-5 中风险 0.66
CDM_260910-144005-749805-780923
2026-09-10T
14:40:31+0000
1.191 km
极远距离
1.107902E-5 中风险 0.56
CDM_260910-174805-749805-780923
2026-09-10T
17:48:49+0000
1.289 km
极远距离
8.438577E-6 低风险 0.54
CDM_260913-195205-749806-368621
2026-09-13T
19:52:37+0000
1.110 km
极远距离
4.024171E-6 低风险 0.47
CDM_260909-093805-749805-780923
2026-09-09T
09:38:39+0000
1.643 km
极远距离
3.825859E-6 低风险 0.47
Miss Distance Evolution Trend with All Objects
Collision Probability Evolution Trend with All Objects